GW1707 Weather Reports


Display with metric or nautical units.
time (UTC)temp
F
wind
direction
speed
MPH
gust
MPH
rain 1hr
in
rain 24hr
in
rain mn
in
humidity
%
barometer
mb
20260905011604 52 0 0.0 0.0 0.00 0.15 0.04 81 1012.9
20260905010118 52 0 0.0 0.0 0.00 0.15 0.04 87 1012.7
20260905004615 51 0 0.0 0.0 0.00 0.15 0.04 89 1012.5
20260905003105 50 0 0.0 0.0 0.00 0.15 0.04 90 1012.3
20260905001603 50 0 0.0 0.0 0.01 0.15 0.04 90 1012.2
20260905000106 50 0 0.0 0.0 0.02 0.15 0.04 91 1012.4
20260904234604 49 0 0.0 0.0 0.03 0.15 0.04 90 1012.3
20260904233106 49 0 0.0 0.0 0.03 0.15 0.04 90 1012.2
20260904231605 50 0 0.0 0.0 0.02 0.14 0.03 90 1011.8
20260904230114 50 0 0.0 0.0 0.01 0.13 0.02 89 1011.3
20260904224605 51 0 0.0 0.0 0.00 0.11 0.00 88 1011.2
20260904223105 51 0 0.0 0.0 0.00 0.11 0.00 88 1011.2
20260904221613 51 0 0.0 0.0 0.00 0.11 0.00 88 1011.1
20260904220108 51 0 0.0 0.0 0.00 0.11 0.00 88 1011.2
20260904214622 50 0 0.0 0.0 0.00 0.11 0.00 88 1011.2
20260904213107 50 0 0.0 0.0 0.00 0.11 0.00 88 1011.1
20260904211621 50 0 0.0 0.0 0.00 0.11 0.00 88 1010.9
20260904210107 51 0 0.0 0.0 0.00 0.11 0.00 87 1010.8
20260904204608 51 0 0.0 0.0 0.00 0.11 0.00 87 1010.9
20260904203119 51 0 0.0 0.0 0.00 0.11 0.00 87 1010.8
20260904201601 51 0 0.0 0.0 0.00 0.11 0.00 87 1010.8
20260904200120 52 0 0.0 0.0 0.00 0.11 0.00 89 1010.6
20260904194606 52 0 0.0 0.0 0.00 0.11 0.00 88 1010.1
20260904193106 53 0 0.0 0.0 0.00 0.11 0.00 87 1010.0
20260904191607 53 0 0.0 0.0 0.00 0.11 0.00 88 1009.9
20260904190109 53 0 0.0 0.0 0.00 0.11 0.00 88 1009.6
20260904184608 53 0 0.0 0.0 0.00 0.11 0.00 88 1009.6
20260904183106 53 0 0.0 0.0 0.00 0.11 0.00 87 1009.7
20260904181604 54 0 0.0 0.0 0.00 0.11 0.00 85 1009.6
20260904180124 53 0 0.0 0.0 0.00 0.11 0.00 88 1009.4
20260904174610 54 0 0.0 0.0 0.00 0.11 0.00 88 1009.2
20260904173107 54 0 0.0 0.0 0.00 0.11 0.00 87 1009.6
20260904171608 54 0 0.0 0.0 0.00 0.11 0.00 88 1009.6
20260904170109 54 0 0.0 0.0 0.00 0.11 0.00 88 1009.9
20260904164610 54 0 0.0 0.0 0.00 0.11 0.00 90 1010.1
20260904163104 54 0 0.0 0.0 0.00 0.11 0.00 90 1010.1
20260904161617 54 0 0.0 0.0 0.00 0.11 0.00 89 1010.0
20260904160107 54 0 0.0 0.0 0.00 0.11 0.00 89 1009.8
20260904154606 54 0 0.0 0.0 0.00 0.11 0.00 89 1010.2
20260904153140 54 0 0.0 0.0 0.00 0.11 0.00 89 1010.1
20260904151606 55 0 0.0 0.0 0.02 0.11 0.00 88 1010.3
20260904150107 55 0 0.0 0.0 0.02 0.11 0.00 88 1010.3
20260904144606 55 0 0.0 0.0 0.03 0.11 0.00 88 1010.3
20260904143107 55 0 0.0 0.0 0.03 0.11 0.00 86 1010.4
20260904141604 57 0 0.0 0.0 0.00 0.08 0.08 83 1010.8
20260904140107 58 0 0.0 0.0 0.00 0.08 0.08 81 1010.7
20260904134608 60 0 0.0 0.0 0.00 0.07 0.07 77 1010.9
20260904133104 60 0 0.0 0.0 0.00 0.07 0.07 76 1010.8
20260904131636 60 0 0.0 0.0 0.00 0.07 0.07 77 1010.5
20260904130110 60 0 0.0 0.0 0.00 0.07 0.07 77 1010.1
20260904124603 60 0 0.0 0.0 0.00 0.07 0.07 77 1010.4
20260904123110 60 0 0.0 0.0 0.00 0.07 0.07 78 1010.7
20260904121602 60 0 0.0 0.0 0.00 0.07 0.07 77 1010.9
20260904120109 60 0 0.0 0.0 0.00 0.07 0.07 78 1010.7
20260904114608 60 0 0.0 0.0 0.00 0.07 0.07 77 1011.2
20260904113108 60 0 0.0 0.0 0.00 0.07 0.07 78 1011.1
20260904111607 60 0 0.0 0.0 0.00 0.07 0.07 78 1010.9
20260904110105 61 0 0.0 0.0 0.00 0.07 0.07 78 1011.2
20260904104605 61 0 0.0 0.0 0.00 0.07 0.07 79 1011.4
20260904103111 61 0 0.0 0.0 0.00 0.07 0.07 78 1011.3
20260904101606 61 0 0.0 0.0 0.00 0.07 0.07 79 1011.2
20260904100103 61 0 0.0 0.0 0.00 0.07 0.07 79 1011.2
20260904094607 61 0 0.0 0.0 0.00 0.07 0.07 79 1011.2
20260904093106 61 0 0.0 0.0 0.00 0.07 0.07 80 1011.2
20260904091611 61 0 0.0 0.0 0.00 0.07 0.07 82 1011.2
20260904084608 61 0 0.0 0.0 0.00 0.07 0.07 82 1011.2
20260904083112 61 0 0.0 0.0 0.00 0.07 0.07 82 1011.2
20260904081603 61 0 0.0 0.0 0.00 0.07 0.07 83 1011.5
20260904074611 61 0 0.0 0.0 0.00 0.07 0.07 83 1011.5
20260904073105 61 0 0.0 0.0 0.00 0.07 0.07 82 1011.6
20260904071605 61 0 0.0 0.0 0.00 0.07 0.07 82 1011.6
20260904070129 61 0 0.0 0.0 0.00 0.07 0.07 82 1011.7
20260904064558 62 0 0.0 0.0 0.00 0.07 0.07 83 1011.7
20260904063107 61 0 0.0 0.0 0.00 0.07 0.07 83 1012.0
20260904061609 61 0 0.0 0.0 0.00 0.07 0.07 84 1011.7
20260904060103 60 0 0.0 0.0 0.00 0.07 0.07 84 1012.0
20260904054601 61 0 0.0 0.0 0.00 0.07 0.07 84 1012.2
20260904053106 60 0 0.0 0.0 0.00 0.07 0.07 86 1012.4
20260904051621 59 0 0.0 0.0 0.00 0.07 0.07 85 1012.8
20260904044612 58 0 0.0 0.0 0.00 0.07 0.07 86 1013.0
20260904043103 59 0 0.0 0.0 0.00 0.07 0.07 86 1013.1
20260904041612 58 0 0.0 0.0 0.00 0.07 0.07 86 1013.1
20260904040112 58 0 0.0 0.0 0.04 0.07 0.07 87 1013.3
20260904034626 58 0 0.0 0.0 0.04 0.07 0.07 89 1013.5
20260904033105 56 0 0.0 0.0 0.04 0.07 0.07 90 1013.8
20260904031603 55 0 0.0 0.0 0.05 0.06 0.06 88 1014.6
20260904030106 55 0 0.0 0.0 0.01 0.02 0.02 87 1015.3
20260904024609 55 0 0.0 0.0 0.02 0.02 0.02 87 1015.3
20260904023110 54 0 0.0 0.0 0.02 0.02 0.02 88 1015.6
20260904021611 54 0 0.0 0.0 0.00 0.00 0.00 85 1015.5
20260904020106 55 0 0.0 0.0 0.00 0.00 0.00 84 1017.0
20260904014640 56 0 0.0 0.0 0.00 0.00 0.00 81 1016.8
20260904013105 57 0 0.0 0.0 0.00 0.00 0.00 78 1017.4